OBJECT E, 59777

Orbit data source: Space-Track

You're viewing an Uncataloged Satellite

Recently launched and/or uncataloged satellites may have evolving metadata. Metadata may include but not limited to: Owner, Maufacturer, Bus, Motor, and Mission.

OBJECT E, 59777 is a satellite owned by Sitronics (CIS) in SSO that was launched on Thu, 16 May 2024 UTC via a SOYUZ-2-1B launch vehicle from the Plesetsk Missile And Space Complex (PKMTR). Unknown objects in Earth's orbit typically refer to objects detected orbiting the Earth but have not yet been identified or cataloged. These objects could be anything from previously untracked satellites, spent rocket stages, debris from satellite collisions, or even natural meteoroids temporarily captured by Earth's gravity.

Loading next visibility...
Identifier
59777, 2024-092E
Orbit
SSO
Country
Flag of CISCIS
Related business
Manufacturer
Sputniks
Mission
Operational Commercial Communications
Bus & Motor
CUBESAT 3U?, Unknown motor
Mass
3 kg wet, 3 kg dry
Launch date (UTC)
2024-05-16 (1 year ago)
Launch vehicle
SOYUZ-2-1B
Launch site
Plesetsk Missile And Space Complex (PKMTR)
Object type
Unknown
Shape & HBR
Box, 0.1 m
Radar Cross Section
0.035 m², Small (<0.1 m²)

Expand to show TLE details & history
Last TLE update: 1 day ago

TLE from 1 day ago
0 OBJECT E
1 59777U 24092E   25301.31345289  .00022354  00000-0  84958-3 0  9991
2 59777  97.6352  61.9442 0008595 248.5174 111.5148 15.26777214 80240
Epoch: 2025-10-28T07:31Z
TLE epoch observation values (Epoch: 2025-10-28T07:31:22.329Z)
Latitude
-0.00004°
Longitude
-87.80157°
Altitude
490.715 km
Speed
7.618 km/s
True Right ascension
04h 07m 46s
True Declination
0° 00' 00"
Sunlit
Object was in full shadow at epoch
Visualization orbit readout
Latitude
Unknown
Longitude
Unknown
Altitude
Unknown
Speed
Unknown
Apparent Right ascension
Unknown
Apparent Declination
Unknown
Sunlit
N/A
Visualization observer readout
Local Sidereal Time
04:11:18
Azimuth
Unknown
Elevation
Unknown
Doppler factor
Unknown
Orbital elements
Apogee altitude
488.317 km
Perigee altitude
476.524 km
Semi-major axis
6,860.558 km
Eccentricity
0.00086
Inclination
97.6352°
RAAN
61.9442°
Arg. of periapsis
248.5174°
True anomaly
111.60639°
Mean anomaly
111.5148°
Eccentric anomaly
111.5606°
Mean motion
3.81948 °/min
Orbital period
94.25 mins
BSTAR
0.00084958
Loading maneuver chart data...
Computing Atmospheric mass density...
Loading historical data...
Loading historical data...
Loading historical data...
Loading historical data...
Loading historical data...
Loading historical data...
Loading historical data...

Documentation

Showing up to 5 results
|